EW5523 Weather Reports


time (UTC)temp
C
wind
direction
speed
KPH
gust
KPH
rain 1hr
cm
rain 24hr
cm
rain mn
cm
humidity
%
barometer
mb
20260506044515 20 268 0.0 6.4 0.00 0.00 0.00 50 1007.6
20260506043008 19 222 0.0 8.0 0.00 0.00 0.00 52 1007.5
20260506041505 18 260 0.0 9.7 0.00 0.00 0.00 53 1007.5
20260506040003 18 296 0.0 8.0 0.00 0.00 0.00 53 1007.6
20260506034606 18 167 0.0 3.2 0.00 0.00 0.00 54 1007.4
20260506033058 17 201 0.0 9.7 0.00 0.00 0.00 55 1007.2
20260506031600 17 204 0.0 1.6 0.00 0.00 0.00 56 1007.3
20260506030057 16 222 0.0 6.4 0.00 0.00 0.00 57 1007.3
20260506024603 16 200 0.0 4.8 0.00 0.00 0.00 59 1007.2
20260506023057 15 189 0.0 1.6 0.00 0.00 0.00 60 1007.1
20260506021555 15 201 0.0 0.0 0.00 0.00 0.00 62 1007.2
20260506020118 14 196 0.0 0.0 0.00 0.00 0.00 64 1007.0
20260506014551 14 196 0.0 0.0 0.00 0.00 0.00 65 1007.0
20260506013051 13 196 0.0 0.0 0.00 0.00 0.00 65 1006.9
20260506011551 13 196 0.0 0.0 0.00 0.00 0.00 66 1006.8
20260506010051 13 196 0.0 0.0 0.00 0.00 0.00 66 1006.8
20260506004549 13 196 0.0 0.0 0.00 0.00 0.00 66 1006.7
20260506003048 13 195 0.0 0.0 0.00 0.00 0.00 65 1006.7
20260506001554 13 195 0.0 0.0 0.00 0.00 0.00 64 1006.7
20260506000056 14 196 0.0 0.0 0.00 0.00 0.00 62 1006.7
20260505234543 15 196 0.0 0.0 0.00 0.00 0.00 59 1006.7
20260505233044 15 195 0.0 0.0 0.00 0.00 0.00 59 1006.7
20260505231538 15 195 0.0 0.0 0.00 0.00 0.00 58 1006.7
20260505230042 15 194 0.0 0.0 0.00 0.00 0.00 58 1006.7
20260505224543 16 220 0.0 0.0 0.00 0.00 0.00 57 1006.8
20260505223037 16 221 0.0 3.2 0.00 0.00 0.00 57 1006.8
20260505221530 16 197 0.0 1.6 0.00 0.00 0.00 57 1006.9
20260505220028 16 185 0.0 1.6 0.00 0.00 0.00 56 1006.8
20260505214528 16 230 0.0 1.6 0.00 0.00 0.00 56 1006.7
20260505213029 16 212 0.0 6.4 0.00 0.00 0.00 57 1006.8
20260505211531 16 208 0.0 0.0 0.00 0.00 0.00 57 1006.8
20260505210023 17 208 0.0 8.0 0.00 0.00 0.00 56 1006.8
20260505204523 17 203 0.0 6.4 0.00 0.00 0.00 56 1006.8
20260505203021 17 207 0.0 3.2 0.00 0.00 0.00 56 1006.9
20260505201518 17 210 0.0 1.6 0.00 0.00 0.00 55 1006.8
20260505200017 17 212 0.0 1.6 0.00 0.00 0.00 54 1006.9
20260505194516 18 213 0.0 4.8 0.00 0.00 0.00 54 1006.9
20260505193015 18 210 0.0 1.6 0.00 0.00 0.00 53 1006.9
20260505191518 18 197 0.0 0.0 0.00 0.00 0.00 53 1006.9
20260505190015 18 206 0.0 0.0 0.00 0.00 0.00 52 1006.9
20260505184514 18 199 0.0 0.0 0.00 0.00 0.00 52 1006.9
20260505183015 18 197 0.0 3.2 0.00 0.00 0.00 52 1007.0
20260505181513 18 218 0.0 0.0 0.00 0.00 0.00 51 1007.0
20260505180013 19 218 0.0 0.0 0.00 0.00 0.00 49 1007.0
20260505174518 19 218 0.0 0.0 0.00 0.00 0.00 48 1007.0
20260505173012 20 218 0.0 0.0 0.00 0.00 0.00 47 1007.0
20260505171517 20 218 0.0 0.0 0.00 0.00 0.00 46 1006.9
20260505170011 20 218 0.0 0.0 0.00 0.00 0.00 44 1006.9
20260505164510 21 218 0.0 0.0 0.00 0.00 0.00 43 1006.8
20260505163013 21 218 0.0 0.0 0.00 0.00 0.00 42 1006.6
20260505161510 22 218 0.0 1.6 0.00 0.00 0.00 40 1006.5
20260505153018 23 208 0.0 4.8 0.00 0.00 0.00 37 1006.2
20260505151508 23 234 0.0 9.7 0.00 0.00 0.00 36 1006.1
20260505124559 25 271 1.6 11.3 0.00 0.00 0.00 32 1006.6
20260505123106 25 251 1.6 9.7 0.00 0.00 0.00 33 1006.7
20260505121557 25 291 0.0 9.7 0.00 0.00 0.00 33 1006.5
20260505120112 25 177 0.0 16.1 0.00 0.00 0.00 33 1006.7
20260505114556 25 251 3.2 14.5 0.00 0.00 0.00 32 1006.8
20260505113053 24 281 0.0 6.4 0.00 0.00 0.00 34 1006.8
20260505111551 24 219 1.6 9.7 0.00 0.00 0.00 35 1006.9
20260505110108 24 148 0.0 8.0 0.00 0.00 0.00 35 1006.9
20260505101546 23 243 0.0 11.3 0.00 0.00 0.00 37 1007.1
20260505100043 23 134 3.2 14.5 0.00 0.00 0.00 39 1007.2
20260505094542 23 287 1.6 11.3 0.00 0.00 0.00 38 1007.3
20260505093042 23 218 1.6 8.0 0.00 0.00 0.00 38 1007.3
20260505091551 23 216 1.6 9.7 0.00 0.00 0.00 39 1007.5
20260505090039 23 31 0.0 8.0 0.00 0.00 0.00 39 1007.6
20260505084538 23 229 0.0 9.7 0.00 0.00 0.00 41 1007.7
20260505083041 23 159 1.6 11.3 0.00 0.00 0.00 41 1007.7
20260505081533 22 256 0.0 17.7 0.00 0.00 0.00 43 1007.8
20260505080031 22 252 0.0 12.9 0.00 0.00 0.00 43 1007.9
20260505074534 22 185 0.0 12.9 0.00 0.00 0.00 44 1008.0
20260505073028 22 209 1.6 6.4 0.00 0.00 0.00 46 1008.1
20260505071527 22 285 0.0 11.3 0.00 0.00 0.00 45 1008.1
20260505070024 22 168 0.0 4.8 0.00 0.00 0.00 49 1008.3
20260505064531 21 193 0.0 0.0 0.00 0.00 0.00 52 1008.3
20260505063019 21 168 0.0 3.2 0.00 0.00 0.00 52 1008.3
20260505061516 20 160 0.0 1.6 0.00 0.00 0.00 54 1008.2
20260505060014 19 280 0.0 6.4 0.00 0.00 0.00 56 1008.3